FW2285 Weather Reports


Display with metric or nautical units.
time (UTC)temp
F
wind
direction
speed
MPH
gust
MPH
rain 1hr
in
rain 24hr
in
rain mn
in
humidity
%
barometer
mb
20260503003013 60 262 0.0 1.0 0.00 0.00 0.00 26 1019.6
20260503001511 61 264 0.0 3.0 0.00 0.00 0.00 22 1019.8
20260503000009 62 252 0.0 4.0 0.00 0.00 0.00 21 1019.9
20260502234509 62 240 1.0 4.0 0.00 0.00 0.00 20 1020.0
20260502233011 63 227 0.0 4.0 0.00 0.00 0.00 19 1019.9
20260502231507 63 217 2.0 4.0 0.00 0.00 0.00 21 1020.1
20260502230010 63 73 0.0 3.0 0.00 0.00 0.00 21 1020.2
20260502224505 63 227 0.0 5.0 0.00 0.00 0.00 17 1020.1
20260502223004 64 222 1.0 7.0 0.00 0.00 0.00 19 1020.3
20260502221503 63 309 0.0 4.0 0.00 0.00 0.00 22 1020.4
20260502220001 63 240 1.0 6.0 0.00 0.00 0.00 25 1020.5
20260502214600 64 256 1.0 5.0 0.00 0.00 0.00 23 1020.7
20260502213124 64 238 2.0 7.0 0.00 0.00 0.00 21 1020.9
20260502211636 63 248 2.0 9.0 0.00 0.00 0.00 19 1021.0
20260502210109 63 303 2.0 6.0 0.00 0.00 0.00 21 1021.1
20260502204555 62 288 0.0 4.0 0.00 0.00 0.00 22 1021.2
20260502203101 62 304 2.0 5.0 0.00 0.00 0.00 24 1021.5
20260502201559 63 306 1.0 5.0 0.00 0.00 0.00 24 1021.7
20260502200052 63 314 1.0 4.0 0.00 0.00 0.00 30 1021.8
20260502194602 62 298 2.0 6.0 0.00 0.00 0.00 26 1022.0
20260502193050 61 302 0.0 3.0 0.00 0.00 0.00 25 1022.0
20260502191550 61 225 1.0 3.0 0.00 0.00 0.00 27 1022.0
20260502190048 61 59 1.0 7.0 0.00 0.00 0.00 25 1022.2
20260502184555 60 160 1.0 8.0 0.00 0.00 0.00 25 1022.5
20260502183057 60 30 1.0 5.0 0.00 0.00 0.00 25 1022.6
20260502181546 60 254 1.0 8.0 0.00 0.00 0.00 26 1022.8
20260502163043 57 304 3.0 6.0 0.00 0.00 0.00 26 1023.3
20260502161540 57 28 2.0 6.0 0.00 0.00 0.00 26 1023.3
20260502151537 55 24 1.0 5.0 0.00 0.00 0.00 30 1023.4
20260502123003 40 313 1.0 3.0 0.00 0.00 0.00 59 1022.8
20260502121600 39 314 0.0 2.0 0.00 0.00 0.00 60 1022.7
20260502121505 39 314 0.0 2.0 0.00 0.00 0.00 60 1022.8
20260502114608 38 315 0.0 3.0 0.00 0.00 0.00 60 1022.2
20260502113055 38 315 1.0 3.0 0.00 0.00 0.00 59 1022.0
20260502111555 39 315 1.0 2.0 0.00 0.00 0.00 58 1021.9
20260502110050 39 315 1.0 3.0 0.00 0.00 0.00 58 1021.8
20260502104551 39 313 1.0 2.0 0.00 0.00 0.00 58 1021.8
20260502103046 39 313 1.0 3.0 0.00 0.00 0.00 58 1021.8
20260502101612 39 313 0.0 2.0 0.00 0.00 0.00 58 1021.6
20260502071523 42 314 0.0 0.0 0.00 0.00 0.00 52 1021.1
20260502070033 43 314 0.0 0.0 0.00 0.00 0.00 51 1021.2
20260502064520 43 314 0.0 0.0 0.00 0.00 0.00 50 1021.3
20260502063020 43 314 0.0 1.0 0.00 0.00 0.00 51 1021.3
20260502061518 43 314 0.0 0.0 0.00 0.00 0.00 49 1021.2
20260502060017 44 314 0.0 0.0 0.00 0.00 0.00 47 1021.2
20260502054513 45 314 0.0 1.0 0.00 0.00 0.00 46 1021.3
20260502053010 46 314 0.0 0.0 0.00 0.00 0.00 45 1021.1
20260502051508 47 313 0.0 2.0 0.00 0.00 0.00 42 1021.2
20260502050008 47 313 0.0 1.0 0.00 0.00 0.00 40 1021.1
20260502044509 48 313 0.0 2.0 0.00 0.00 0.00 40 1021.0
20260502043004 49 314 1.0 4.0 0.00 0.00 0.00 38 1020.9
20260502041503 49 318 0.0 2.0 0.00 0.00 0.00 39 1020.8
20260502040003 48 317 0.0 1.0 0.00 0.00 0.00 40 1020.7
20260502034505 48 315 0.0 2.0 0.00 0.00 0.00 42 1020.8
20260502033002 47 315 0.0 1.0 0.00 0.00 0.00 45 1020.6
20260502031502 47 315 0.0 1.0 0.00 0.00 0.00 47 1020.4
20260502030001 48 315 0.0 0.0 0.00 0.00 0.00 46 1020.3
20260502024600 49 315 0.0 0.0 0.00 0.00 0.00 44 1020.0
20260502023125 50 315 0.0 0.0 0.00 0.00 0.00 41 1019.8
20260502021600 51 315 0.0 1.0 0.00 0.00 0.00 41 1019.4
20260502020112 51 315 0.0 0.0 0.00 0.00 0.00 42 1019.1
20260502020002 51 315 0.0 0.0 0.00 0.00 0.00 41 1019.1
20260502014559 53 315 0.0 2.0 0.00 0.00 0.00 38 1018.9
20260502013113 55 315 0.0 2.0 0.00 0.00 0.00 35 1018.7
20260502011608 56 315 0.0 3.0 0.00 0.00 0.00 32 1018.6
20260502010100 57 313 0.0 3.0 0.00 0.00 0.00 30 1018.2
20260502004621 58 315 1.0 4.0 0.00 0.00 0.00 28 1018.2